星链-36517(STARLINK-36517)

导读 | 豆包AI

STARLINK-36517是美国太空探索技术公司(SpaceX)星链(Starlink)项目的卫星,于2026年1月14日发射升空。星链项目旨在搭建全球卫星互联网星座,为全球提供高速低延迟互联网服务,该卫星入轨后将进一步拓展星链星座的全球覆盖范围与服务能力。

Basic Information
目录编号:
67454
目录名称:
STARLINK-36517
国际标识:
2026-008K
轨道中心:
EARTH
卫星名称:
星链-36517
卫星全名:
星链-36517(STARLINK-36517)
卫星状态:
在轨 (已飞行131 天)
发射日期:
2026-01-14 UTC
国别 :
美国 (US)
星等 :
--
Orbit Information
数据来源 国际轨道数据 AOE轨道数据
星历时间 2026-05-25T08:33:38+0800
9小时前
查看轨道信息
2026-05-22T05:00:00+0800
3天前
查看轨道信息
半长轴 6861.145km 6861.056km
偏心率 0.0000951 0.0000137
轨道倾角 42.999° 43.000°
近地点辐角 237.314° 101.166°
升交点赤经 134.387° 152.175°
平近点角 122.762° 204.845°
近地点 482.355km 482.825km
远地点 483.661km 483.013km
周期 94.266分钟 94.264分钟
每日圈数 15.275939 15.276236
Detailed Information
固有亮度:
5
最大亮度:
2.5
卫星平台:
Starlink V1.0
覆盖范围:
全球
运营商:
太空探索技术公司
运营商所在国:
美国
制造商(研发单位):
太空探索技术公司
制造商所在国:
美国
使用方式:
暂无
Satellite Introduction
Starlink 计划是 SpaceX 推出的全球卫星互联网项目,通过发射低轨道卫星,为全球尤其是偏远地区提供高速、低延迟的互联网服务。自 2019 年起,Starlink 已部署数千颗卫星,旨在缩小全球数字鸿沟,推动互联网普及。该项目还为军事、航空等行业提供通信支持,带来广泛经济效益。
2D Orbit Map
3D Orbit Map
Orbit Altitude Analysis Chart
Orbit Inclination Analysis Chart
Orbit Comprehensive Analysis Chart
View Comprehensive Chart